Location: Innerarity Island Observatory
(30.3139°N, 87.4867°W)
Time: 13:23:12
(UTC-05:00)

Amateur Radio Satellites - All Passes

Search period start: 23 September 2017 12:53
Search period end: 24 September 2017 12:53
Location: Innerarity Island Observatory, 30.3139°N, 87.4867°W

Satellite Date Start Highest point End Downlink Frequencies (MHz)
Time Altitude Azimuth
VELOX 1 23 Sep 12:56:19 13:00:21 35° 99° (E) 13:04:23 145.980
Oscar 19 23 Sep 12:56:40 13:01:07 29° 71° (ENE) 13:05:33 437.125/150
SPROUT 23 Sep 12:57:48 13:02:02 55° 100° (E) 13:06:14 437.525
DUCHIFAT 1 23 Sep 13:08:19 13:11:20 19° 264° (W) 13:14:24 145.980
NO-84 23 Sep 13:12:40 13:16:17 33° 313° (NW) 13:19:40 435.350 FM
O/OREOS (USA 219) 23 Sep 13:15:05 13:19:35 53° 255° (WSW) 13:24:03 437.305
PCSat 23 Sep 13:21:58 13:25:00 15° 104° (ESE) 13:28:03 145.827
SO-50 23 Sep 13:25:31 13:29:42 40° 113° (ESE) 13:33:54 436.795
M-CUBED/EXP-1 PRIME 23 Sep 13:36:33 13:39:37 18° 258° (WSW) 13:42:34 437.505
50 SAT 23 Sep 13:36:48 13:39:44 29° 98° (E) 13:42:39 437.505
BUGSAT 1 23 Sep 13:44:13 13:47:41 29° 262° (W) 13:51:12 437.445
AO-7 23 Sep 13:51:21 13:56:07 17° 57° (ENE) 14:00:52 .
UKube-1 23 Sep 13:59:57 14:03:39 28° 98° (E) 14:07:20 .
DX 1 23 Sep 14:05:51 14:10:07 57° 101° (E) 14:14:22 434.975-435.025
YUBILEINY 23 Sep 14:11:33 14:18:05 23° 287° (WNW) 14:24:40 435.215
Gurwin Techsat 1B 23 Sep 14:17:57 14:23:11 61° 259° (W) 14:28:27 435.225
VELOX 1 23 Sep 14:33:57 14:36:27 15° 291° (WNW) 14:38:56 145.980
Oscar 19 23 Sep 14:36:05 14:40:18 25° 263° (W) 14:44:33 437.125/150
RS-15 23 Sep 14:48:31 15:00:19 66° 60° (ENE) 15:11:24 29.354- 29.394
PCSat 23 Sep 15:02:37 15:07:52 52° 297° (WNW) 15:13:10 145.827
SO-50 23 Sep 15:07:25 15:10:16 17° 307° (NW) 15:13:09 436.795
MOZHAYETS 4 23 Sep 15:18:21 15:22:04 24° 96° (E) 15:25:45
UKube-1 23 Sep 15:36:29 15:39:24 18° 290° (WNW) 15:42:20 .
ITAMSAT 1 23 Sep 15:39:22 15:44:30 74° 75° (ENE) 15:49:40 435.822/435.867
AO-7 23 Sep 15:39:26 15:47:47 87° 254° (WSW) 15:56:10 .
ITUPSAT 1 23 Sep 15:45:04 15:49:42 47° 100° (E) 15:54:19 437.325
BEESAT 23 Sep 16:21:47 16:26:31 63° 285° (WNW) 16:31:14 436.000
MOZHAYETS 4 23 Sep 16:55:19 16:59:04 25° 289° (WNW) 17:02:47
RS-15 23 Sep 17:02:32 17:11:40 28° 257° (WSW) 17:20:30 29.354- 29.394
XW-2D 23 Sep 17:12:02 17:12:41 10° 69° (ENE) 17:13:20 145.860 - 145.880
KKS-1 23 Sep 17:15:52 17:19:45 29° 98° (E) 17:23:37 437.445
CUBESAT XI-V 23 Sep 17:20:33 17:25:09 69° 284° (WNW) 17:29:42 437.345
XW-2B 23 Sep 17:22:51 17:24:57 14° 70° (ENE) 17:27:04 145.730 - 145.750
XW-2F 23 Sep 17:23:05 17:25:02 14° 70° (ENE) 17:26:58 145.980 - 146.000
ITUPSAT 1 23 Sep 17:24:37 17:27:03 14° 293° (WNW) 17:29:30 437.325
CUTE-I 23 Sep 17:28:04 17:31:53 20° 68° (ENE) 17:35:42 437.470
DOVE 4 23 Sep 17:32:33 17:37:06 83° 260° (W) 17:41:25 437.250
AO-7 23 Sep 17:38:05 17:41:16 12° 266° (W) 17:44:28 .
STARS 23 Sep 17:40:54 17:44:17 21° 97° (E) 17:47:38 437.465
XW-2C 23 Sep 17:42:54 17:46:10 27° 73° (ENE) 17:49:26 145.795 - 145.815
NUDT-PHONESAT 23 Sep 17:45:48 17:48:33 20° 72° (ENE) 17:51:19 437.300
LilacSat-2 23 Sep 17:54:38 17:58:18 43° 75° (ENE) 18:01:59 437.200
JUGNU 23 Sep 18:07:48 18:12:05 20° 167° (SSE) 18:16:22 437.505
KAITUO 1B 23 Sep 18:13:09 18:16:49 50° 76° (ENE) 18:20:30 145.475/437.950
CUTE 1.7 + AOD 2 23 Sep 18:17:03 18:19:00 13° 69° (ENE) 18:20:59 437.475
BEESAT 3 23 Sep 18:30:28 18:33:01 16° 109° (ESE) 18:35:33 437.485
Tancredo 1 23 Sep 18:33:27 18:36:06 71° 133° (SE) 18:38:46 437.200
XW-2D 23 Sep 18:42:51 18:46:26 38° 261° (W) 18:50:03 145.860 - 145.880
CUBEBUG 2 23 Sep 18:45:21 18:47:42 15° 69° (ENE) 18:50:04 437.445
KKS-1 23 Sep 18:52:58 18:56:02 19° 290° (WNW) 18:59:06 437.445
HO-68 23 Sep 18:55:26 19:02:22 57° 71° (ENE) 19:09:19 435.675
XW-2F 23 Sep 18:55:30 18:58:49 28° 262° (W) 19:02:11 145.980 - 146.000
XW-2B 23 Sep 18:55:32 18:58:49 27° 262° (W) 19:02:09 145.730 - 145.750
ISS 23 Sep 18:59:33 19:00:50 12° 125° (SE) 19:02:06 437.550
CUTE-I 23 Sep 19:06:41 19:11:36 38° 261° (W) 19:16:30 437.470
STARS 23 Sep 19:16:55 19:20:29 25° 289° (WNW) 19:24:03 437.465
XW-2C 23 Sep 19:18:14 19:20:18 14° 265° (W) 19:22:23 145.795 - 145.815
NUDT-PHONESAT 23 Sep 19:19:36 19:22:16 18° 264° (W) 19:24:56 437.300
SEEDS 23 Sep 19:22:16 19:26:22 50° 76° (ENE) 19:30:28 437.485
XW-2A 23 Sep 19:33:06 19:36:18 41° 75° (ENE) 19:39:33 145.665 - 145.685
SRMSAT 23 Sep 19:35:12 19:36:42 11° 161° (SSE) 19:38:13 437.500
AO-73 23 Sep 19:36:53 19:39:24 15° 69° (ENE) 19:41:57 145.935
nSIGHT-1 23 Sep 19:37:04 19:40:06 40° 130° (SE) 19:43:09 .
Oscar 11 23 Sep 19:38:06 19:38:38 10° 67° (ENE) 19:39:10 .
ZACube-1 23 Sep 19:39:11 19:42:11 19° 70° (ENE) 19:45:15 437.345
AAUSAT CUBESAT 2 23 Sep 19:45:13 19:49:04 38° 74° (ENE) 19:52:55 437.432
CUTE 1.7 + AOD 2 23 Sep 19:50:25 19:54:26 39° 261° (W) 19:58:28 437.475
JUGNU 23 Sep 19:55:32 20:00:36 29° 176° (S) 20:05:39 437.505
BEESAT 3 23 Sep 20:06:48 20:10:17 28° 302° (WNW) 20:13:49 437.485
BEESAT 2 23 Sep 20:13:34 20:17:31 88° 118° (ESE) 20:21:34 435.950
CUBEBUG 2 23 Sep 20:20:09 20:23:56 33° 262° (W) 20:27:51 437.445
UWE-3 23 Sep 20:26:31 20:30:38 53° 260° (W) 20:34:55 435.000/436.395/437.385
STRAND 1 23 Sep 20:27:08 20:32:17 74° 284° (WNW) 20:37:24 437.568
AO-85 23 Sep 20:31:41 20:35:30 51° 299° (WNW) 20:39:18 145.980
ISS 23 Sep 20:33:54 20:36:59 39° 318° (NW) 20:40:05 437.550
HO-68 23 Sep 20:45:14 20:50:19 21° 264° (W) 20:55:26 435.675
Oscar 11 23 Sep 21:10:01 21:14:14 52° 261° (W) 21:18:30 .
AO-73 23 Sep 21:11:23 21:15:16 34° 262° (W) 21:19:15 145.935
DELFI C3 23 Sep 21:13:34 21:16:59 28° 74° (ENE) 21:20:23 145.870
ZACube-1 23 Sep 21:14:34 21:18:13 27° 263° (W) 21:21:57 437.345
nSIGHT-1 23 Sep 21:14:43 21:16:33 14° 325° (NW) 21:18:24 .
SRMSAT 23 Sep 21:20:48 21:25:17 22° 168° (SSE) 21:29:46 437.500
AAUSAT CUBESAT 2 23 Sep 21:22:58 21:24:35 12° 266° (W) 21:26:12 437.432
NO-84 23 Sep 21:28:01 21:30:50 53° 232° (SW) 21:33:35 435.350 FM
TIGRISAT 23 Sep 21:37:33 21:39:55 14° 94° (E) 21:42:17 435.000
EO-88 23 Sep 21:42:34 21:45:53 34° 75° (ENE) 21:49:14 145.990 - 145.960
JUGNU 23 Sep 21:44:13 21:49:09 27° 187° (S) 21:54:04 437.505
FO-29 23 Sep 22:04:49 22:10:29 83° 283° (WNW) 22:16:53 435.910
PRISM 23 Sep 22:09:41 22:12:00 15° 95° (E) 22:14:20 437.425
Max Valier Satellite 23 Sep 22:15:26 22:19:01 50° 260° (W) 22:22:39 145.860
YUBILEINY 23 Sep 22:31:09 22:37:23 21° 72° (ENE) 22:43:35 435.215
LO-87 23 Sep 22:39:15 22:41:48 19° 72° (ENE) 22:44:20 145.935 - 145.965
UNISAT 6 23 Sep 22:48:24 22:53:05 76° 283° (WNW) 22:57:46 437.425
DELFI C3 23 Sep 22:49:34 22:51:43 14° 265° (W) 22:53:51 145.870
SRMSAT 23 Sep 23:08:54 23:13:57 30° 178° (S) 23:19:01 437.500
TIGRISAT 23 Sep 23:12:15 23:16:42 43° 286° (WNW) 23:21:08 435.000
ESTCUBE 1 23 Sep 23:19:08 23:23:29 48° 74° (ENE) 23:27:51 437.505/2401.250
JUGNU 23 Sep 23:33:54 23:37:37 17° 196° (SSW) 23:41:18 437.505
POLYITAN 1 23 Sep 23:37:15 23:38:54 12° 94° (E) 23:40:35 437.675
EO-79 23 Sep 23:41:00 23:43:10 14° 94° (E) 23:45:19 145.935-145.965
SO-50 23 Sep 23:41:49 23:46:27 87° 242° (WSW) 23:51:07 436.795
PRISM 23 Sep 23:43:45 23:47:15 29° 288° (WNW) 23:50:47 437.425
SPROUT 23 Sep 23:46:10 23:49:15 20° 71° (ENE) 23:52:20 437.525
VELOX 1 23 Sep 23:49:01 23:51:43 16° 69° (ENE) 23:54:25 145.980
QB50P2 23 Sep 23:53:36 23:56:59 22° 97° (E) 00:00:21 145.880/145.840
PCSat 23 Sep 23:56:18 00:01:19 37° 61° (ENE) 00:06:16 145.827
AIST 2D 24 Sep 00:00:53 00:04:24 86° 103° (ESE) 00:07:53 435.315
LO-87 24 Sep 00:12:48 00:15:04 16° 264° (W) 00:17:21 145.935 - 145.965
YUBILEINY 24 Sep 00:26:04 00:34:40 65° 268° (W) 00:43:17 435.215
NANOSAT C BR1 24 Sep 00:28:10 00:32:18 48° 100° (E) 00:36:25 145.865
UKube-1 24 Sep 00:50:44 00:52:20 12° 68° (ENE) 00:53:58 .
DX 1 24 Sep 00:56:12 00:59:39 24° 71° (ENE) 01:03:06 434.975-435.025
DUCHIFAT 1 24 Sep 00:56:22 01:00:38 83° 285° (WNW) 01:04:53 145.980
SRMSAT 24 Sep 00:57:50 01:02:38 26° 188° (S) 01:07:27 437.500
ESTCUBE 1 24 Sep 00:59:01 01:00:27 11° 267° (W) 01:01:53 437.505/2401.250
POLYITAN 1 24 Sep 01:10:45 01:14:46 40° 286° (WNW) 01:18:47 437.675
Oscar 19 24 Sep 01:14:55 01:18:03 16° 95° (E) 01:21:08 437.125/150
EO-79 24 Sep 01:15:03 01:18:58 35° 286° (WNW) 01:22:52 145.935-145.965
M-CUBED/EXP-1 PRIME 24 Sep 01:19:24 01:22:32 43° 104° (ESE) 01:25:38 437.505
SPROUT 24 Sep 01:21:30 01:24:56 24° 263° (W) 01:28:23 437.525
VELOX 1 24 Sep 01:23:52 01:27:50 33° 261° (W) 01:31:49 145.980
QB50P2 24 Sep 01:29:18 01:32:36 22° 289° (WNW) 01:35:54 145.880/145.840
BUGSAT 1 24 Sep 01:30:36 01:34:46 58° 100° (E) 01:38:56 437.445
50 SAT 24 Sep 01:32:37 01:35:55 78° 259° (W) 01:39:14 437.505
PCSat 24 Sep 01:40:19 01:44:24 22° 254° (WSW) 01:48:27 145.827
O/OREOS (USA 219) 24 Sep 01:42:39 01:46:41 34° 103° (ESE) 01:50:45 437.305
NANOSAT C BR1 24 Sep 02:06:40 02:07:30 11° 293° (WNW) 02:08:22 145.865
MOZHAYETS 4 24 Sep 02:16:24 02:18:11 12° 67° (ENE) 02:19:58
UKube-1 24 Sep 02:23:50 02:27:55 43° 260° (W) 02:32:02 .
Tancredo 1 24 Sep 02:31:55 02:34:30 41° 44° (NE) 02:37:03 437.200
DX 1 24 Sep 02:32:21 02:35:41 22° 263° (W) 02:39:01 434.975-435.025
Gurwin Techsat 1B 24 Sep 02:39:54 02:45:14 86° 101° (ESE) 02:50:33 435.225
ITUPSAT 1 24 Sep 02:46:24 02:50:28 29° 71° (ENE) 02:54:34 437.325
SRMSAT 24 Sep 02:48:02 02:51:15 15° 197° (SSW) 02:54:28 437.500
Oscar 19 24 Sep 02:52:36 02:57:29 44° 287° (WNW) 03:02:19 437.125/150
RS-15 24 Sep 02:59:23 03:03:45 13° 97° (E) 03:08:06 29.354- 29.394
ISS 24 Sep 03:06:57 03:08:51 14° 35° (NE) 03:10:46 437.550
BEESAT 24 Sep 03:22:03 03:26:47 77° 76° (ENE) 03:31:34 436.000
O/OREOS (USA 219) 24 Sep 03:23:17 03:26:08 16° 297° (WNW) 03:29:01 437.305
nSIGHT-1 24 Sep 03:44:46 03:47:49 37° 43° (NE) 03:50:52 .
AO-7 24 Sep 03:47:52 03:55:45 46° 102° (ESE) 04:03:34 .
MOZHAYETS 4 24 Sep 03:50:22 03:54:49 50° 260° (W) 03:59:19
ITAMSAT 1 24 Sep 03:58:08 04:03:03 42° 99° (E) 04:07:58 435.822/435.867
KKS-1 24 Sep 04:09:46 04:12:02 14° 68° (ENE) 04:14:19 437.445
CUBESAT XI-V 24 Sep 04:17:35 04:22:11 58° 76° (ENE) 04:26:48 437.345
ITUPSAT 1 24 Sep 04:24:36 04:28:13 21° 264° (W) 04:31:51 437.325
BEESAT 3 24 Sep 04:28:39 04:31:55 24° 57° (ENE) 04:35:08 437.485
ISS 24 Sep 04:42:21 04:45:28 42° 230° (SW) 04:48:35 437.550
RS-15 24 Sep 05:02:05 05:14:10 75° 113° (ESE) 05:26:28 29.354- 29.394
AO-85 24 Sep 05:07:30 05:11:21 26° 58° (ENE) 05:15:24 145.980
nSIGHT-1 24 Sep 05:22:25 05:23:50 12° 235° (SW) 05:25:16 .
DOVE 4 24 Sep 05:36:32 05:40:35 38° 99° (E) 05:44:50 437.250
ITAMSAT 1 24 Sep 05:38:41 05:42:08 18° 293° (WNW) 05:45:36 435.822/435.867
AO-7 24 Sep 05:41:04 05:48:09 33° 296° (WNW) 05:55:14 .
KKS-1 24 Sep 05:44:04 05:48:12 39° 261° (W) 05:52:20 437.445
CUTE-I 24 Sep 05:51:54 05:54:02 12° 93° (E) 05:56:09 437.470
BEESAT 3 24 Sep 06:06:30 06:09:15 18° 251° (WSW) 06:11:57 437.485
STARS 24 Sep 06:06:46 06:11:02 57° 259° (W) 06:15:20 437.465
BEESAT 2 24 Sep 06:13:57 06:17:55 60° 245° (WSW) 06:21:48 435.950
XW-2D 24 Sep 06:20:56 06:24:18 30° 98° (E) 06:27:38 145.860 - 145.880
HO-68 24 Sep 06:32:26 06:35:36 13° 93° (E) 06:38:45 435.675
XW-2F 24 Sep 06:32:42 06:36:15 39° 99° (E) 06:39:46 145.980 - 146.000
XW-2B 24 Sep 06:33:05 06:36:43 42° 99° (E) 06:40:17 145.730 - 145.750
AO-85 24 Sep 06:47:43 06:51:40 27° 248° (WSW) 06:55:49 145.980
NUDT-PHONESAT 24 Sep 06:54:07 06:57:47 59° 100° (E) 07:01:24 437.300
XW-2C 24 Sep 06:54:19 06:58:08 88° 281° (W) 07:01:53 145.795 - 145.815
LilacSat-2 24 Sep 07:07:22 07:11:05 52° 284° (WNW) 07:14:46 437.200
SEEDS 24 Sep 07:13:30 07:15:21 13° 94° (E) 07:17:09 437.485
DOVE 4 24 Sep 07:15:47 07:17:58 14° 290° (WNW) 07:20:10 437.250
RS-15 24 Sep 07:17:26 07:27:44 30° 313° (NW) 07:38:09 29.354- 29.394
KAITUO 1B 24 Sep 07:23:35 07:27:10 46° 284° (WNW) 07:30:42 145.475/437.950
CUTE-I 24 Sep 07:29:05 07:34:20 60° 286° (WNW) 07:39:34 437.470
STRAND 1 24 Sep 07:37:05 07:42:10 87° 76° (ENE) 07:47:17 437.568
CUTE 1.7 + AOD 2 24 Sep 07:40:38 07:44:46 52° 100° (E) 07:48:51 437.475
XW-2D 24 Sep 07:56:28 07:58:08 13° 290° (WNW) 07:59:48 145.860 - 145.880
FO-29 24 Sep 08:13:23 08:17:26 20° 70° (ENE) 08:21:15 435.910
CUBEBUG 2 24 Sep 08:15:33 08:20:18 76° 101° (E) 08:25:03 437.445
HO-68 24 Sep 08:16:38 08:23:50 81° 287° (WNW) 08:31:02 435.675
UWE-3 24 Sep 08:21:22 08:25:54 48° 99° (E) 08:30:22 435.000/436.395/437.385
XW-2A 24 Sep 08:32:29 08:35:53 74° 284° (WNW) 08:39:16 145.665 - 145.685
SEEDS 24 Sep 08:47:16 08:51:05 35° 286° (WNW) 08:54:53 437.485
Oscar 11 24 Sep 09:02:51 09:06:59 42° 99° (E) 09:11:03 .
AO-73 24 Sep 09:04:18 09:08:52 70° 101° (ESE) 09:13:21 145.935
ZACube-1 24 Sep 09:07:31 09:12:08 87° 106° (ESE) 09:16:40 437.345
AAUSAT CUBESAT 2 24 Sep 09:07:51 09:11:48 48° 285° (WNW) 09:15:44 437.432
UNISAT 6 24 Sep 09:41:27 09:45:32 44° 74° (ENE) 09:49:43 437.425
Max Valier Satellite 24 Sep 09:51:25 09:54:16 21° 96° (E) 09:57:05 145.860
FO-29 24 Sep 09:56:46 10:02:17 40° 260° (W) 10:07:22 435.910
UWE-3 24 Sep 09:59:42 10:01:51 13° 292° (WNW) 10:04:00 435.000/436.395/437.385
TIGRISAT 24 Sep 10:04:43 10:09:00 80° 77° (ENE) 10:13:24 435.000
HO-68 24 Sep 10:08:17 10:10:26 11° 301° (WNW) 10:12:36 435.675
PRISM 24 Sep 10:26:19 10:30:25 83° 77° (ENE) 10:34:31 437.425
DELFI C3 24 Sep 10:29:53 10:33:47 75° 282° (WNW) 10:37:40 145.870
AIST 2D 24 Sep 10:31:14 10:32:43 12° 70° (ENE) 10:34:10 435.315
Oscar 11 24 Sep 10:40:54 10:42:39 12° 292° (WNW) 10:44:24 .
EO-88 24 Sep 10:49:46 10:53:25 75° 282° (WNW) 10:57:02 145.990 - 145.960
NO-84 24 Sep 11:02:49 11:05:00 14° 122° (ESE) 11:07:06 435.350 FM
NANOSAT C BR1 24 Sep 11:15:34 11:18:18 17° 70° (ENE) 11:21:02 145.865
ESTCUBE 1 24 Sep 11:18:31 11:21:15 16° 95° (E) 11:23:57 437.505/2401.250
UNISAT 6 24 Sep 11:21:12 11:22:25 11° 267° (W) 11:23:39 437.425
YUBILEINY 24 Sep 11:24:38 11:31:47 30° 86° (E) 11:38:55 435.215
Max Valier Satellite 24 Sep 11:25:22 11:27:53 17° 289° (WNW) 11:30:23 145.860
DUCHIFAT 1 24 Sep 11:42:29 11:46:10 31° 73° (ENE) 11:49:53 145.980
LO-87 24 Sep 11:43:36 11:47:09 53° 100° (E) 11:50:40 145.935 - 145.965
POLYITAN 1 24 Sep 11:56:55 12:01:04 67° 76° (ENE) 12:05:16 437.675
O/OREOS (USA 219) 24 Sep 11:58:20 12:02:14 27° 66° (ENE) 12:06:07 437.305
M-CUBED/EXP-1 PRIME 24 Sep 11:59:23 12:02:59 26° 69° (ENE) 12:06:23 437.505
EO-79 24 Sep 12:00:57 12:05:08 76° 76° (ENE) 12:09:20 145.935-145.965
AIST 2D 24 Sep 12:02:33 12:05:34 26° 263° (W) 12:08:37 435.315
RS-15 24 Sep 12:02:39 12:07:42 13° 27° (NNE) 12:12:38 29.354- 29.394
QB50P2 24 Sep 12:14:54 12:19:03 62° 260° (W) 12:23:14 145.880/145.840
BUGSAT 1 24 Sep 12:15:41 12:18:22 18° 70° (ENE) 12:21:05 437.445
Oscar 19 24 Sep 12:26:59 12:29:36 14° 66° (ENE) 12:32:13 437.125/150
NO-84 24 Sep 12:38:17 12:42:10 45° 312° (NW) 12:45:47 435.350 FM
